Regional Weather Roundup
Issued by NWS

Home | Current Version | Previous Version | Text Only | Print | Product List | Glossary Off
Versions: 1 2 3 4 5 6 7 8 9 10 11 12 13 14 15 16 17 18 19 20 21 22 23 24 25 26 27 28 29 30 31 32 33 34 35 36 37 38 39 40 41 42 43 44 45 46 47 48 49 50

000
ASUS45 KBOU 020907
RWRCO

WEATHER ROUNDUP FOR COLORADO
NATIONAL WEATHER SERVICE DENVER/BOULDER CO
200 AM MST MON MAR 02 2015

NOTE: "FAIR" INDICATES FEW OR NO CLOUDS BELOW 12000 FEET WITH NO
SIGNIFICANT WEATHER AND/OR OBSTRUCTIONS TO VISIBILITY.

COZ001>005-013-030-031-021000-
...NORTHWEST COLORADO...

CITY           SKY/WX    TMP DP  RH WIND       PRES   REMARKS
CRAIG          LGT SNOW  32  28  85 E5        29.98S FOG     WCI  27
HAYDEN         CLOUDY    28  25  86 SE8       29.98F WCI  20
MEEKER         LGT SNOW  30  28  92 CALM      29.96F FOG
MOUNT WERNER   NOT AVBL
STEAMBOAT SPGS CLOUDY    26  25  96 CALM      29.99S VSB 1
WALDEN         CLOUDY    27  23  86 CALM      29.97S
$$

COZ006>008-011-021000-
...WEST CENTRAL VALLEYS...

CITY           SKY/WX    TMP DP  RH WIND       PRES   REMARKS
GRAND JUNCTION CLOUDY    34  34 100 E6        29.96F WCI  29
MONTROSE       CLOUDY    33  31  92 E5        30.00F FOG     WCI  29
EAGLE          CLOUDY    30  30 100 CALM      30.02F
RIFLE          SNOW      32  31  96 CALM      29.99F VSB 1/2
DELTA          CLOUDY    37  36  96 SE3       30.00S
NUCLA          NOT AVBL
$$

COZ017>023-064>068-021000-
...SOUTHWEST COLORADO...

CITY           SKY/WX    TMP DP  RH WIND       PRES   REMARKS
DURANGO        CLOUDY    34  32  92 NE5       30.07F WCI  30
CORTEZ         CLOUDY    40  36  86 CALM      30.02F
PAGOSA SPRINGS CLOUDY    35  35 100 CALM      30.10F
TELLURIDE      NOT AVBL
WOLF CREEK PAS CLOUDY    25  25 100 SW26G44   30.13F WCI   9
$$

COZ009-010-012-014-032>034-037-058>063-021000-
...CENTRAL COLORADO...

CITY           SKY/WX    TMP DP  RH WIND       PRES   REMARKS
ASPEN          LGT SNOW  29  28  96 CALM      29.97F FOG
BUENA VISTA    LGT SNOW  19  17  89 CALM      30.08F
COPPER MTN     LGT SNOW  27  21  80 S21       30.03S WCI  13
BERTHOUD PASS  CLOUDY    19  12  73 S9G28     30.04F HAZE    WCI   9
COTTONWOOD PAS LGT SNOW  25  21  86 CALM      30.04S
GUNNISON       MOCLDY    27  25  93 CALM      30.08F
KREMMLING      LGT SNOW  30  28  93 CALM      30.01S VSB 3/4
LEADVILLE      LGT SNOW  20  18  92 NW3       30.01F FOG
SALIDA         CLOUDY    21  17  85 SE3       30.17S
SUNLIGHT       LGT SNOW  30  28  93 S3          N/A  VSB 1
WILKERSON PASS CLOUDY    23  21  93 SW9G18    30.05F FOG     WCI  13
$$

COZ069>075-021000-
...SAN LUIS VALLEY/SANGRE DE CRISTO MOUNTAINS...

CITY           SKY/WX    TMP DP  RH WIND       PRES   REMARKS
ALAMOSA        PTCLDY    32  29  88 S5        30.06F WCI  27
LA VETA PASS   CLOUDY    30  28  93 S14G26    30.10F WCI  20
SAGUACHE       FLURRIES  32  32 100 CALM      30.08F
$$

COZ035-036-038>040-021000-
...NORTHERN COLORADO FRONT RANGE...

CITY           SKY/WX    TMP DP  RH WIND       PRES   REMARKS
DENVER INTL AP MOCLDY    14  11  87 SE12      30.09F WCI   0
DMNS CITY PARK   N/A     22  16  77 NW5       30.10F WCI  16
AURORA         PTCLDY    15  12  88 S8        30.09F WCI   5
FRONT RANGE AP NOT AVBL
ERIE MUNI ARPT CLOUDY    24  20  87 N5        30.12F WCI  18
BOULDER MUN AP PTCLDY    21  19  93 CALM      30.11F FOG
CENTENNIAL     PTCLDY    16  13  88 SW5       30.08F FOG     WCI   9
BROOMFIELD     CLOUDY    23  19  86 N7        30.10F WCI  15
FORT COLLINS   CLOUDY    25  19  80 CALM      30.14F
LONGMONT       PTCLDY    25  20  80 N3        30.14F
$$

COZ041-046-047-076>085-087-088-021000-
...PIKES PEAK/PALMER DIVIDE AND SOUTHERN FOOTHILLS...

CITY           SKY/WX    TMP DP  RH WIND       PRES   REMARKS
COLO. SPRINGS  CLOUDY    21  19  92 S14       30.14F FOG     WCI   8
A. F. ACADEMY  CLOUDY    18  16  91 S16       30.09F WCI   4
ELLICOTT       NOT AVBL
FALCON         CLOUDY    19  17  95 S16       30.10F FOG     WCI   4
FORT CARSON    MOCLDY    20  18  92 S8        30.13F WCI  10
LIMON          CLOUDY    22  19  89 S17       30.15F WCI   8
MONUMENT HILL  CLOUDY    18  14  86 S16       30.03F WCI   3
TRINIDAD       CLOUDY    23  21  92 CALM      30.14F FOG
$$

COZ042>045-048>051-090-091-021000-
...NORTHEAST COLORADO...

CITY           SKY/WX    TMP DP  RH WIND       PRES   REMARKS
GREELEY ARPT   PTCLDY    25  16  68 SE7       30.14F WCI  17
AKRON          CLOUDY    25  20  81 S12       30.17F WCI  14
BURLINGTON     CLOUDY    27  19  72 S17       30.24F WCI  14
WRAY           NOT AVBL
STERLING       CLEAR     25  19  80 S7        30.18F WCI  17
HOLYOKE        NOT AVBL
FORT MORGAN    NOT AVBL
$$

COZ086-089-092>099-021000-
...SOUTHEAST COLORADO...

CITY           SKY/WX    TMP DP  RH WIND       PRES   REMARKS
PUEBLO         CLOUDY    25  22  88 CALM      30.20F
LA JUNTA       CLOUDY    27  22  81 SE6       30.23F WCI  20
LAMAR          PTCLDY    24  22  91 S8        30.27F WCI  15
SPRINGFIELD      N/A     24  21  88 S10       30.25F WCI  14
$$


USA.gov is the U.S. government's official web portal to all federal, state and local government web resources and services.